Flag for Poland Weather past 2 weeks in Włocławek, Poland

Now
38 °F

Chilly.


Feels Like: 35 °F
Forecast: 38 / 48 °F
Wind: 3 mph from Southwest

Location: Plock

Current Time: Mar 6, 2015 at 9:58:32 PM

Latest Report: Mar 6, 2015 at 9:00 PM


Visibility: 6 mi

Pressure: 30.50 "Hg

Humidity: 81%

Dew point: 33 °F

Location of WłocławekLocation

Historic Weather in Włocławek — Graph

°F

Włocławek temperature yesterday

Maximum temperature yesterday: 39 °F (at 3:00 PM)
Minimum temperature yesterday: 30 °F (at 11:00 PM)
Average temperature yesterday: 35 °F

Past Weeks' High & Low Weather Summary

 TemperatureHumidityPressure
High47 °F (Feb 28, 1:00 PM)99% (Mar 6, 10:00 AM)30.57 "Hg (Mar 6, 10:00 AM)
Low26 °F (Mar 6, 3:00 AM)46% (Feb 21, 3:00 PM)29.41 "Hg (Mar 2, 1:00 PM)
Average38 °F84%29.95 "Hg
* Reported Feb 19 8:00 PM — Mar 6 8:00 PM, Włocławek, Weather by CustomWeather, © 2015

Note: Actual official high and low records may vary slightly from our data, if they occured in-between our weather recording intervals... More about our weather records

Advertising

Włocławek weather history for previous 24 hours

 ConditionsComfort  
Time TempWeatherWind HumidityBarometerVisibility
8:00 PM
Fri, Mar 6
38 °FFog.3 mph77%30.49 "Hg7 mi
7:00 PM39 °FChilly.3 mph72%30.50 "Hg10 mi
6:00 PM39 °FChilly.2 mph70%30.50 "Hg11 mi
5:00 PM40 °FChilly.3 mph70%30.49 "Hg12 mi
4:00 PM41 °FQuite cool.5 mph63%30.50 "Hg16 mi
3:00 PM39 °FFog.2 mph84%30.51 "Hg3 mi
2:00 PM38 °FFog.3 mph89%30.52 "Hg2 mi
1:00 PM35 °FFog.3 mph92%30.53 "Hg2 mi
12:00 PM35 °FFog.2 mph93%30.54 "Hg4 mi
11:00 AM31 °FChilly.3 mph99%30.56 "Hg2 mi
10:00 AM30 °FSnow flurries. Cloudy.2 mph99%30.57 "Hg0 mi
9:00 AM29 °FSnow flurries. Cloudy.1 mph98%30.56 "Hg0 mi
8:00 AM28 °FSnow flurries. Cloudy.1 mph98%30.56 "Hg0 mi
7:00 AM27 °FDuststorm.1 mph98%30.55 "Hg0 mi
6:00 AM27 °FDuststorm.1 mph98%30.55 "Hg0 mi
5:00 AM28 °FDuststorm.1 mph98%30.54 "Hg0 mi
3:00 AM26 °FDuststorm.1 mph97%30.51 "Hg0 mi
2:00 AM27 °FDuststorm.No wind97%30.52 "Hg0 mi
1:00 AM28 °FDuststorm.No wind97%30.51 "Hg0 mi
12:00 AM30 °FFog.2 mph97%30.50 "Hg2 mi
11:00 PM
Thu, Mar 5
30 °FFog.2 mph97%30.50 "Hg2 mi
10:00 PM31 °FFog.2 mph97%30.49 "Hg2 mi
9:00 PM32 °FFog.1 mph95%30.47 "Hg3 mi
Weather by CustomWeather, © 2015

See weather overviewHow to use our weather pages